Tracking 18032 objects as of 27-March-2017
HD Live streaming from Space Station
objects crossing your sky now

USA 142

Track USA 142 now!
USA 142 is classified as:


NORAD ID: 25669
Int'l Code: 1999-017A
Perigee: 638.0 km
Apogee: 34,701.0 km
Inclination: 28.9 °
Period: 618.3 minutes
Semi major axis: 24040 km
RCS: Unknown
Launch date: April 9, 1999
Source: United States (US)
Launch site: AIR FORCE EASTERN TEST RANGE (AFETR)
Your satellite tracking list
Your tracking list is empty





NASA's NSSDC Master Catalog

Two Line Element Set (TLE):
1 25669U 99017A   16236.82954880 0.00000000  00000-0  00000-0 0    09
2 25669  28.8520 220.6743 7084509 316.2217   5.7350  2.32910135    00
Source of the keplerian elements: McCants